Tracking 23611 objects as of 18-Sep-2021
HD Live streaming from Space Station
objects crossing your sky now
Track INSPIRATION-4

STARLINK-1777

Track STARLINK-1777 now!
10-day predictions
STARLINK-1777 is classified as:


NORAD ID: 47122
Int'l Code: 2020-088A
Perigee: 553.0 km
Apogee: 555.7 km
Inclination: 53.1 °
Period: 95.6 minutes
Semi major axis: 6925 km
RCS: Unknown
Launch date: November 25, 2020
Source: United States (US)
Launch site: AIR FORCE EASTERN TEST RANGE (AFETR)
aabbcc
Your satellite tracking list
Your tracking list is empty




NASA's NSSDC Master Catalog

Two Line Element Set (TLE):
1 47122U 20088A   21260.88886524  .00000986  00000-0  85091-4 0  9994
2 47122  53.0542  76.0381 0001943  86.5755 273.5456 15.06399398 45582
Source of the keplerian elements: AFSPC